Regional Weather Roundup
Issued by NWS

Home | Current Version | Previous Version | Text Only | Print | Product List | Glossary On
Versions: 1 2 3 4 5 6 7 8 9 10 11 12 13 14 15 16 17 18 19 20 21 22 23 24 25 26 27 28 29 30 31 32 33 34 35 36 37 38 39 40 41 42 43 44 45 46 47 48 49 50
000
ASUS43 KIND 210709
RWRIN

WEATHER ROUNDUP FOR INDIANA
NATIONAL WEATHER SERVICE INDIANAPOLIS IN
300 AM EDT TUE APR 21 2015

NOTE: "FAIR" INDICATES FEW OR NO CLOUDS BELOW 12,000 FEET WITH NO
SIGNIFICANT WEATHER AND/OR OBSTRUCTIONS TO VISIBILITY.

* - STATION DOES NOT REPORT WEATHER SUCH AS PRECIPITATION OR FOG.

+ - STATION NOT QUALITY CONTROLLED BY THE NATIONAL WEATHER SERVICE.
    USE DATA WITH CAUTION...ESPECIALLY DEWPOINT AND RELATIVE
    HUMIDITY OBSERVATIONS.

INZ001>003-010>013-019-020-210800-
NORTHWEST INDIANA

CITY           SKY/WX    TMP DP  RH WIND       PRES   REMARKS
GARY /AIRPORT/ CLOUDY    45  29  54 SW6       29.64S
KNOX *+        CLOUDY    41  25  52 SW13      29.65F
LA PORTE +     CLOUDY    44  36  73 SW10G18   29.64F
MICHIGAN CITY+ CLOUDY    43  30  61 SW10G16   29.63F
MONTICELLO +   CLEAR     40  36  86 SW9       29.68F
RENSSELAER +   PTCLDY    37  37 100 W3        29.68F
VALPARAISO     CLOUDY    42  34  73 SW10      29.65F

$$

LMZ046-743>745-210800-
SOUTHERN LAKE MICHIGAN

STATION/POSITION TIME  TEMP    WIND        PRES    WAVE
                       AIR SEA DIR/SP/G            HT
                 (UTC) (F)     (DEG/KT/KT) (MB)    (FT)
BURNS HARBOR     0700   45     230/ 15/ 20 1004.1F
MICHIGAN CITY    0700   44     210/ 18/ 22   N/A
5NW MICH CITY    0700   45 45  250/ 17/ 25   N/A     4

$$

INZ004-005-014>016-021>024-210800-
NORTH CENTRAL INDIANA

CITY           SKY/WX    TMP DP  RH WIND       PRES   REMARKS
GOSHEN         CLOUDY    43  36  76 SW15      29.64S
LOGANSPORT +   CLEAR     39  36  87 SW12      29.69F
PERU/GRISSOM   PTCLDY    40  35  82 SW12      29.68F
ROCHESTER +    PTCLDY    43  37  81 SW9       29.67F
SOUTH BEND     MOCLDY    43  34  70 SW14      29.63F
WARSAW +       MOCLDY    43  34  70 SW9       29.66S

$$

INZ006>009-017-018-025>027-210800-
NORTHEAST INDIANA

CITY           SKY/WX    TMP DP  RH WIND       PRES   REMARKS
ANGOLA *+      CLOUDY    41  36  81 SW12      29.62S
AUBURN +       CLOUDY    43  34  70 SW10      29.66S
FORT WAYNE     PTCLDY    42  35  76 SW13      29.68S
HUNTINGTON +   PTCLDY    42  32  67 W10       29.69R

$$

INZ028-029-035-036-043>045-051>053-210800-
WEST CENTRAL INDIANA

CITY           SKY/WX    TMP DP  RH WIND       PRES   REMARKS
CRAWFORDSVL +  CLEAR     40  31  69 SW9       29.73F
GREENCASTLE +  CLEAR     43  32  65 SW3       29.76F
LAFAYETTE      CLEAR     42  35  76 SW10      29.70F
TERRE HAUTE    CLEAR     45  34  65 SW10      29.77F

$$

INZ030>032-037>040-046>048-054>057-064-065-210800-
CENTRAL INDIANA

CITY           SKY/WX    TMP DP  RH WIND       PRES   REMARKS
CP ATTERBURY + PTCLDY    43  34  70 SW7       29.79F
FISHERS *+     PTCLDY    43  36  75 SW9       29.74F
FRANKFORT +    CLEAR     41  36  83 S14       29.72F
GREENWOOD *+   PTCLDY    43  32  65 SW9       29.77F
INDIANAPOLIS   CLEAR     41  33  73 SW10      29.74F
-EAGLE CREEK   CLEAR     44  34  67 SW8       29.74F
KOKOMO *+      CLEAR     43  34  70 SW14      29.69F
MARION +       PTCLDY    40  35  83 SW9       29.71F
MT COMFORT *+  PTCLDY    45  27  49 SW10      29.75F
SHELBYVILLE    MOCLDY    44  35  70 SW9       29.77S
ZIONSVILLE +   CLEAR     44  34  68 SW13      29.74S

$$

INZ033-034-041-042-049-050-058-059-210800-
EAST CENTRAL INDIANA

CITY           SKY/WX    TMP DP  RH WIND       PRES   REMARKS
MUNCIE         MOCLDY    42  33  70 SW7       29.72F

$$

INZ060-061-067>069-081>083-085>088-210800-
SOUTHWEST INDIANA

CITY           SKY/WX    TMP DP  RH WIND       PRES   REMARKS
EVANSVILLE     CLEAR     46  36  68 SW3       29.87F
HUNTINGBURG *+ PTCLDY    45  36  70 SW9       29.85F
WASHINGTON +   CLEAR     46  33  61 SW8       29.82F

$$

INZ062-063-066-070>080-084-089>092-210800-
SOUTH CENTRAL AND SOUTHEAST INDIANA

CITY           SKY/WX    TMP DP  RH WIND       PRES   REMARKS
BEDFORD +      PTCLDY    46  34  61 SW8       29.82S
BLOOMINGTON    CLEAR     45  35  68 SW9       29.79F
MADISON *+     CLEAR     45  34  65 S5        29.84S
NORTH VERNON + PTCLDY    43  37  81 SW8       29.81F

$$



USA.gov is the U.S. government's official web portal to all federal, state and local government web resources and services.